• Join FlightAware (Why Join?)
  • Login
  • US Flag 
09:10PM EST


 

Airport Tracker/Info


-or-


 

Live Flight TrackerFlight Track Log ✈ LXJ437 ✈ 21-Jun-2013 ✈ KMEV - KCCR

Flight Track Log - Related Links

Times and Time Zones

All times are in EDT time to prevent confusion due to time zone crossing. See the LXJ437 flight status page for this flight to view local times or setup timezone preferences in your user account.

Time Position Orientation Groundspeed Altitude Reporting Facility
EDT Latitude Longitude Course Direction KTS MPH feet Rate Location/Type
04:16PM 39.1064 -119.8422 283° West 247 284 15,400  Level Oakland Center
04:17PM 39.1269 -119.9603 283° West 341 392 16,400 677 Climbing Oakland Center
04:18PM 39.1264 -120.0939 270° West 383 441 16,800 976 Climbing Oakland Center
04:19PM 39.0678 -120.2239 240° Southwest 378 435 18,400 1,366 Climbing Oakland Center
04:20PM 39.0122 -120.3403 238° Southwest 381 438 19,600 774 Climbing Oakland Center
04:21PM 38.9594 -120.4531 239° Southwest 372 428 20,000 195 Climbing Oakland Center
04:22PM 38.9053 -120.5711 240° Southwest 383 441 20,000 -146 Level Oakland Center
04:23PM 38.8494 -120.6908 239° Southwest 389 448 19,700 -581 Descending Oakland Center
04:24PM 38.7961 -120.8053 239° Southwest 379 436 18,800 -829 Descending Oakland Center
04:25PM 38.7328 -120.9411 239° Southwest 371 427 18,000 -537 Descending Oakland Center
04:26PM 38.6783 -121.0575 239° Southwest 378 435 17,700 -677 Descending Oakland Center
04:27PM 38.6231 -121.1739 239° Southwest 381 438 16,600 -1,016 Descending Oakland Center
04:28PM 38.5683 -121.2886 239° Southwest 379 436 15,600 -1,024 Descending Oakland Center
04:29PM 38.5142 -121.3994 238° Southwest 373 429 14,500 -1,073 Descending Oakland Center
04:30PM 38.4583 -121.5194 239° Southwest 361 415 13,400 -1,109 Descending Oakland Center
04:31PM 38.3833 -121.6000 220° Southwest 352 405 12,300 -1,073 Descending Northern Cal TRACON
04:32PM 38.3094 -121.6558 211° Southwest 352 405 11,200 -1,688 Descending Oakland Center
04:33PM 38.2256 -121.7233 212° Southwest 297 342 8,700 -2,195 Descending Oakland Center
04:34PM 38.1600 -121.7775 213° Southwest 284 327 6,700 -1,951 Descending Oakland Center
04:35PM 38.0994 -121.8300 214° Southwest 269 310 4,700 -1,500 Descending Oakland Center
04:36PM 38.0442 -121.8839 218° Southwest 256 295 3,600 -976 Descending Oakland Center
04:37PM 38.0036 -121.9342 224° Southwest 216 249 2,700 -878 Descending Oakland Center
04:38PM 37.9756 -121.9822 233° Southwest 181 208 1,800 -829 Descending Oakland Center
04:39PM 37.9658 -122.0267 255° West 148 170 1,000 -585 Descending Oakland Center
04:40PM 37.9683 -122.0672 274° West 134 154 600 -387 Descending Oakland Center
04:42PM 37.9833 -122.0500 38° Northeast  Level FlightAware Approximate